THORAD DELTA 1 DEB, 18539

Orbit data source: Space-Track

THORAD DELTA 1 DEB, 18539 is space debris in SSO originally from a launch on Fri, 15 Nov 1974 UTC launched from the Air Force Western Test Range (AFWTR). Debris objects in space refer to the collection of defunct objects orbiting the Earth. Examples of debris include non-operational satellites, rocket bodies, and fragments generated from explosions, collisions, or faulty payload assembly.

Loading next visibility...
Identifier
18539, 1974-089EZ
Orbit
SSO
Country
Flag of USUS
Related business
Manufacturer
Unknown
Mission
Spacecraft
Bus & Motor
Unknown
Mass
Unknown
Launch date (UTC)
1974-11-15 (51 years ago)
Launch vehicle
Unknown
Launch site
Air Force Western Test Range (AFWTR)
Object type
Payload
Rocket body
Debris
Shape & HBR
Unknown shape, 0.1 m
Radar Cross Section
Small (<0.1 m²)

Expand to show TLE details & history
Last TLE update: 20 hours ago

TLE from 20 hours ago
0 THORAD DELTA 1 DEB
1 18539U 74089EZ  26129.70418946  .00000135  00000-0  11123-2 0  9992
2 18539 101.5706  45.3939 0024451 174.0902 215.8501 12.54222450587762
Epoch: 2026-05-09T16:54Z
TLE epoch observation values (Epoch: 2026-05-09T16:54:01.969Z)
Latitude
29.15833°
Longitude
-82.15886°
Altitude
1,465.753 km
Speed
7.125 km/s
True Right ascension
02h 35m 28s
True Declination
29° 01' 32"
Sunlit
Object was in daylight at epoch
Visualization orbit readout
Latitude
Unknown
Longitude
Unknown
Altitude
Unknown
Speed
Unknown
Apparent Right ascension
Unknown
Apparent Declination
Unknown
Sunlit
N/A
Visualization observer readout
Local Sidereal Time
21:09:43
Azimuth
Unknown
Elevation
Unknown
Doppler factor
Unknown
Orbital elements
Apogee altitude
1,463.541 km
Perigee altitude
1,425.287 km
Semi-major axis
7,822.551 km
Eccentricity
0.00245
Inclination
101.5706°
RAAN
45.3939°
Arg. of periapsis
174.0902°
True anomaly
215.68641°
Mean anomaly
215.8501°
Eccentric anomaly
215.76821°
Mean motion
3.13704 °/min
Orbital period
114.76 mins
BSTAR
0.0011123
Loading maneuver chart data...
Computing Atmospheric mass density...

Documentation

Showing up to 5 results
|